レモン彗星

P/2021 TR81 ( Lemmon )

English version
Home page
Updated on May 2, 2025

---------------------------------------------------------------------

・ プロフィール

発見日 2021年10月8日
発見光度 21.2等
発見者 Mt. Lemmon survey

・ 写真集

・ 軌道要素

                    Epoch = 2022 Apr. 11.0 TT
     T = 2022 Apr.  3.02891 TT        Peri. = 272.04547
     e = 0.8324968                    Node  = 220.20599 2000.0
     q = 1.4685820 AU                 Incl. =  36.82071
       a =  8.7674870 AU   n = 0.03796570   P =  25.96 years

・ 光度変化

        m1 = 14.0 + 5 logΔ + 15.0 log r

---------------------------------------------------------------------

軌道要素は、CBET 5550に掲載されたものです。
光度グラフはComet for Windowsで作成したものです。

---------------------------------------------------------------------

Copyright(C) Seiichi Yoshida (comet@aerith.net). All rights reserved.